STARLINK AZ

Last updated on Sat Jul 15 2023 00:02:05 GMT+0000 (Coordinated Universal Time)

1 57265U 23094AZ 23195.75001157 -.01067315 34020-3 -30225-2 0 9990 2 57265 42.9949 276.0392 0024479 199.9174 245.4208 15.91944157 1304

Satellite not in orbit